Overview Statistics Trail Chart Weather Telemetry Raw packets
 

This is the latest recevied weather packets stored in our database for station/object W5DNT. If no packets are shown the sender has not sent any weather packets the latest 10 day(s).

<< 13 14 15 16 17 18 19 >>
Time Temp. Humidity Pressure Rain* Wind** Luminosity Snow
1788317150 30.56° C 51% 1012.6 hPa 0 mm - - -
1788316241 31.11° C 50% 1012.3 hPa 0 mm - - -
1788315344 31.67° C 50% 1012 hPa 0 mm - - -
1788314442 32.22° C 49% 1011.9 hPa 0 mm - - -
1788313540 32.22° C 48% 1011.7 hPa 0 mm - - -
1788312638 32.78° C 47% 1011.6 hPa 0 mm - - -
1788311738 33.33° C 46% 1011.6 hPa 0 mm - - -
1788310840 33.89° C 44% 1011.5 hPa 0 mm - - -
1788309938 34.44° C 42% 1011.5 hPa 0 mm - - -
1788309039 34.44° C 42% 1011.6 hPa 0 mm - - -
1788308136 35° C 42% 1011.6 hPa 0 mm - - -
1788307235 35.56° C 41% 1011.4 hPa 0 mm - - -
1788306335 35.56° C 41% 1011.5 hPa 0 mm - - -
1788305494 36.11° C 41% 1011.5 hPa 0 mm - - -
1788304538 35.56° C 40% 1011.5 hPa 0 mm - - -
1788303633 35° C 42% 1011.6 hPa 0 mm - - -
1788302736 35° C 41% 1011.6 hPa 0 mm - - -
1788301831 35.56° C 40% 1011.6 hPa 0 mm - - -
1788300930 36.11° C 40% 1011.5 hPa 0 mm - - -
1788300032 37.22° C 39% 1011.5 hPa 0 mm - - -
1788299133 36.67° C 39% 1011.7 hPa 0 mm - - -
1788298230 37.78° C 38% 1011.8 hPa 0 mm - - -
1788297323 37.22° C 38% 1012 hPa 0 mm - - -
1788296418 37.22° C 39% 1012.3 hPa 0 mm - - -
1788295518 36.67° C 38% 1012.5 hPa 0 mm - - -

* Rain latest hour (hover to see other rain measurements)
** Current wind speed in m/s (hover to see current wind gust speed)